sat.trackr.live / text

‹ back to catalog

STARLINK-35125

NORAD 65534 · 2025-200Q

PAYLOAD ACTIVE UNKNOWN

§ Identity

Operator
Country
US
Launch date
2025-09-06
Launch site
AFWTR
Launch vehicle
Mass (kg)
RCS (m²)

Purposes: comms

External: N2YO · Heavens-Above · Gunter

§ Orbital elements

Epoch: 2026-05-25T03:57:34.894080Z

Period
95.64 min
Inclination
97.4466°
Eccentricity
0.0001551
Mean motion
15.05656688 rev/d
Perigee alt
548.4 km
Apogee alt
550.6 km
Semi-major
6,927.6 km
B*
2.8372e-4
RAAN
214.7443°
Arg perigee
142.9965°
Mean anomaly
217.1369°
Rev number
4,063

§ Raw data

STARLINK-351251 65534U 25200Q   26145.16498720  .00004038  00000+0  28372-3 0  99962 65534  97.4466 214.7443 0001551 142.9965 217.1369 15.05656688 40636

JSON: /api/v1/satellites/65534 · /tle

For live sub-satellite position, see the globe view (requires WebGL).

§ Visibility from observer

Set your observer location to see the next 7 days of passes ≥ 10°. The values pass through the URL so the page stays shareable.

No JS? Fill the form by hand. The geolocation button needs JavaScript.